LA4GY-1 Weather Reports


time (UTC)temp
F
wind
direction
speed
knots
gust
knots
rain 1hr
in
rain 24hr
in
rain mn
in
humidity
%
barometer
mb
20260508091005 45 169 0.0 0.0 0.00 0.09 0.00 71 1023.3
20260508090005 45 174 0.0 0.0 0.00 0.09 0.00 71 1023.3
20260508084006 45 163 0.0 0.0 0.00 0.09 0.00 72 1023.5
20260508083005 44 160 0.0 0.0 0.00 0.09 0.00 75 1023.6
20260508082005 44 99 0.0 0.0 0.00 0.09 0.00 73 1023.5
20260508081006 44 108 0.0 0.0 0.00 0.09 0.00 76 1023.6
20260508080005 43 163 0.0 0.0 0.00 0.09 0.00 82 1023.6
20260508075005 43 172 0.0 0.0 0.00 0.09 0.00 84 1023.6
20260508074005 42 173 0.0 0.0 0.00 0.09 0.00 84 1023.6
20260508071005 41 172 0.0 0.0 0.00 0.09 0.00 86 1023.7
20260508070005 41 175 0.0 0.0 0.00 0.09 0.00 87 1023.6
20260508064005 40 186 0.0 0.0 0.00 0.09 0.00 88 1023.5
20260508063005 40 186 0.0 0.0 0.00 0.09 0.00 88 1023.5
20260508062005 40 187 0.0 0.0 0.00 0.09 0.00 91 1023.5
20260508061006 39 195 0.0 0.0 0.00 0.09 0.00 90 1023.4
20260508055005 39 184 0.0 0.0 0.00 0.09 0.00 91 1023.5
20260508054005 39 170 0.0 0.0 0.00 0.09 0.00 91 1023.4
20260508053005 39 109 0.0 0.0 0.00 0.09 0.00 90 1023.3
20260508052005 39 107 0.0 0.0 0.00 0.09 0.00 90 1023.3
20260508051005 39 107 0.0 0.0 0.00 0.09 0.00 91 1023.3
20260508050005 39 107 0.0 0.0 0.00 0.09 0.00 91 1023.3
20260508045005 39 107 0.0 0.0 0.00 0.09 0.00 91 1023.2
20260508044005 39 107 0.0 0.0 0.00 0.09 0.00 91 1023.2
20260508043005 39 107 0.0 0.0 0.00 0.09 0.00 91 1023.2
20260508042005 39 107 0.0 0.0 0.00 0.09 0.00 92 1023.1
20260508041005 38 107 0.0 0.0 0.00 0.09 0.00 92 1023.0
20260508040005 38 107 0.0 0.0 0.00 0.09 0.00 92 1022.9
20260508035005 38 107 0.0 0.0 0.00 0.09 0.00 92 1022.9
20260508034006 38 107 0.0 0.0 0.00 0.09 0.00 92 1022.9
20260508033005 37 107 0.0 0.0 0.00 0.09 0.00 92 1022.9
20260508032005 37 107 0.0 0.0 0.00 0.09 0.00 92 1022.8
20260508031005 37 107 0.0 0.0 0.00 0.09 0.00 93 1022.9
20260508030005 36 107 0.0 0.0 0.00 0.09 0.00 93 1022.8
20260508024005 36 107 0.0 0.0 0.00 0.09 0.00 92 1022.6
20260508022005 36 107 0.0 0.0 0.00 0.09 0.00 92 1022.5
20260508021005 36 107 0.0 0.0 0.00 0.09 0.00 92 1022.4
20260508015004 36 107 0.0 0.0 0.00 0.09 0.00 92 1022.3
20260508014005 36 107 0.0 0.0 0.00 0.09 0.00 92 1022.3
20260508013006 36 107 0.0 0.0 0.00 0.09 0.00 92 1022.2
20260508012005 36 107 0.0 0.0 0.00 0.09 0.00 92 1022.1
20260508011005 36 107 0.0 0.0 0.00 0.09 0.00 92 1022.0
20260508010005 36 107 0.0 0.0 0.00 0.09 0.00 92 1022.0
20260508005005 36 107 0.0 0.0 0.00 0.09 0.00 92 1021.9
20260508004005 36 107 0.0 0.0 0.00 0.09 0.00 92 1021.8
20260508003006 36 107 0.0 0.0 0.00 0.09 0.00 91 1021.8
20260508002005 36 107 0.0 0.0 0.00 0.09 0.00 92 1021.7
20260508001005 37 107 0.0 0.0 0.00 0.09 0.00 91 1021.7
20260508000005 37 107 0.0 0.0 0.00 0.09 0.00 91 1021.6
20260507235005 37 107 0.0 0.0 0.00 0.09 0.00 91 1021.6
20260507234005 37 107 0.0 0.0 0.00 0.09 0.00 92 1021.2
20260507233005 37 107 0.0 0.0 0.00 0.09 0.00 92 1021.2
20260507232005 37 107 0.0 0.0 0.00 0.09 0.00 91 1021.2
20260507231005 37 107 0.0 0.0 0.00 0.09 0.00 91 1021.2
20260507230005 37 107 0.0 0.0 0.00 0.09 0.00 91 1021.3
20260507225005 37 107 0.0 0.0 0.00 0.09 0.00 91 1021.1
20260507224005 37 107 0.0 0.0 0.00 0.09 0.00 91 1021.0
20260507223005 38 107 0.0 0.0 0.00 0.09 0.00 91 1020.9
20260507222005 38 107 0.0 0.0 0.00 0.09 0.00 91 1020.8
20260507221005 38 107 0.0 0.0 0.00 0.09 0.00 91 1020.5
20260507220004 38 107 0.0 0.0 0.00 0.09 0.00 91 1020.5
20260507215004 38 107 0.0 0.0 0.00 0.09 0.09 91 1020.5
20260507214005 38 107 0.0 0.0 0.00 0.09 0.09 91 1020.5
20260507213005 38 107 0.0 0.0 0.00 0.09 0.09 91 1020.4
20260507212005 38 107 0.0 0.0 0.00 0.09 0.09 91 1020.3
20260507211004 38 107 0.0 0.0 0.00 0.09 0.09 91 1020.3
20260507210005 38 107 0.0 0.0 0.00 0.09 0.09 91 1020.3
20260507205004 38 107 0.0 0.0 0.00 0.09 0.09 91 1020.1
20260507204004 38 107 0.0 0.0 0.01 0.09 0.09 91 1020.1
20260507202005 38 115 0.0 0.0 0.01 0.09 0.09 91 1019.7
20260507201005 38 115 0.0 0.0 0.01 0.09 0.09 91 1019.6
20260507200005 38 170 0.0 0.0 0.01 0.09 0.09 91 1019.5
20260507195005 38 171 0.0 0.0 0.02 0.09 0.09 90 1019.3
20260507194005 39 187 0.0 0.0 0.01 0.09 0.08 90 1019.2
20260507193004 39 174 0.0 0.0 0.01 0.09 0.08 90 1019.2
20260507191005 40 194 0.0 0.0 0.01 0.09 0.08 90 1019.0
20260507190006 40 121 0.0 0.0 0.01 0.09 0.08 90 1018.9
20260507185004 40 119 0.0 0.0 0.01 0.08 0.07 89 1018.9
20260507184005 40 119 0.0 0.0 0.01 0.08 0.07 89 1018.8
20260507183005 40 119 0.0 0.0 0.01 0.08 0.07 90 1018.7
20260507182005 40 232 0.0 0.0 0.01 0.08 0.07 91 1018.5
20260507180006 39 238 0.0 0.0 0.01 0.08 0.07 91 1018.5
20260507174005 39 300 0.0 0.0 0.01 0.07 0.06 90 1018.3
20260507173005 40 270 0.0 0.0 0.02 0.07 0.06 89 1018.2
20260507171006 41 138 0.0 0.0 0.02 0.08 0.06 89 1018.2
20260507164005 41 120 0.0 0.0 0.01 0.07 0.06 88 1018.0
20260507163005 41 120 0.0 0.0 0.00 0.06 0.05 88 1017.8
20260507162005 41 120 0.0 0.0 0.00 0.06 0.05 87 1017.6
20260507161006 41 120 0.0 0.0 0.02 0.09 0.05 88 1017.7
20260507155005 41 223 0.0 0.0 0.02 0.09 0.05 87 1017.6
20260507154008 42 223 0.0 0.0 0.02 0.09 0.05 87 1017.5
20260507153005 42 223 0.0 0.0 0.02 0.09 0.05 88 1017.5
20260507152005 42 223 0.0 0.0 0.02 0.09 0.05 86 1017.5
20260507151005 43 199 0.0 0.0 0.01 0.08 0.03 85 1017.5
20260507150006 43 144 0.0 0.0 0.01 0.08 0.03 86 1017.3
20260507145005 43 202 0.0 0.0 0.01 0.08 0.03 85 1017.2
20260507144005 43 205 0.0 0.0 0.01 0.08 0.03 86 1017.3
20260507142005 44 212 0.0 0.0 0.01 0.08 0.03 83 1017.2
20260507141007 44 209 0.0 0.0 0.00 0.07 0.02 82 1017.2
20260507140006 44 173 0.0 0.0 0.00 0.07 0.02 80 1017.0
20260507135005 44 167 0.0 0.0 0.00 0.07 0.02 84 1016.9
20260507133006 43 167 0.0 0.0 0.00 0.07 0.02 83 1016.8
20260507132005 43 167 0.0 0.0 0.00 0.07 0.02 83 1016.8
20260507131005 43 167 0.0 0.0 0.00 0.07 0.02 85 1016.9
20260507130005 43 168 0.0 0.0 0.00 0.08 0.02 85 1016.8
20260507125006 42 169 0.0 0.0 0.00 0.08 0.02 85 1016.8
20260507124006 42 161 0.0 0.0 0.00 0.09 0.02 84 1016.7
20260507123006 42 171 0.0 0.0 0.00 0.09 0.02 85 1016.8
20260507121005 42 167 0.0 0.0 0.00 0.09 0.02 86 1016.7
20260507120006 42 168 0.0 0.0 0.00 0.09 0.02 87 1016.7
20260507115006 42 159 0.0 0.0 0.00 0.09 0.02 87 1016.6
20260507114005 42 168 0.0 0.0 0.00 0.09 0.02 87 1016.6
20260507113006 42 106 0.0 0.0 0.00 0.09 0.02 87 1016.6
20260507112006 41 121 0.0 0.0 0.02 0.09 0.02 89 1016.4
20260507111006 41 184 0.0 0.0 0.02 0.10 0.02 89 1016.3
20260507110006 41 250 0.0 0.0 0.02 0.10 0.02 89 1016.3
20260507105005 41 224 0.0 0.0 0.02 0.10 0.02 88 1016.3
20260507103005 42 261 0.0 0.0 0.02 0.11 0.02 83 1016.2
20260507102007 44 325 0.0 0.0 0.00 0.09 0.00 80 1015.9
20260507101006 44 221 0.0 0.0 0.00 0.09 0.00 81 1015.5
20260507100005 44 144 0.0 0.0 0.00 0.09 0.00 77 1015.4
20260507095005 43 145 0.0 0.0 0.00 0.10 0.00 78 1015.3
20260507094006 43 145 0.0 0.0 0.00 0.11 0.00 78 1015.3
20260507092006 43 152 0.0 0.0 0.00 0.12 0.00 78 1015.3